Regional Weather Roundup
Issued by NWS Wakefield, VA

Home | Current Version | Previous Version | Text Only | Print | Product List | Glossary On
Versions: 1 2 3 4 5 6 7 8 9 10 11 12 13 14 15 16 17 18 19 20 21 22 23 24 25 26 27 28 29 30 31 32 33 34 35 36 37 38 39 40 41 42 43 44 45 46 47 48 49 50
000
ASUS41 KAKQ 042015
RWRAKQ

REGIONAL WEATHER ROUNDUP
NATIONAL WEATHER SERVICE WAKEFIELD VA
400 PM EDT SAT JUL 04 2015

Note: "fair" indicates few or no clouds below 12,000 feet with no
significant weather and/or obstructions to visibility. * = Denotes
station may not report precipitation (e.g., rain,snow,etc.),
thunder or fog.

VAZ042-051-052>054-056-042100-
NORTHERN VIRGINIA

CITY           SKY/WX    TMP DP  RH WIND       PRES   REMARKS
WASH NATIONAL  CLOUDY    83  70  64 CALM      29.90S
DULLES         CLOUDY    75  65  70 N5G23     29.92R
FORT BELVOIR   MOSUNNY   81  71  69 S5        29.89S
QUANTICO       MOSUNNY   81  72  74 S10       29.89F
FREDERICKSBRG* PTSUNNY   85  71  62 S8        29.88F
STAFFORD*      PTSUNNY   82  71  68 CALM      29.93S
WARRENTON      LGT RAIN  82  74  77 CALM      29.90R
CULPEPER*      LGT RAIN  77  72  85 W5        29.91R
MANASSAS*      LGT RAIN  75  70  83 E5          N/A
LEESBURG*      TSTM      70  70 100 S7        29.93R VSB 1
WINCHESTER     PTSUNNY   82  66  57 NW7       29.92R
FRONT ROYAL*   CLOUDY    73  70  88 SW3       29.91S
LURAY*         MOCLDY    81  70  69 CALM      29.93S
$$

VAZ048-049-060>072-079>083-042100-
CENTRAL AND SOUTH CENTRAL VIRGINIA

CITY           SKY/WX    TMP DP  RH WIND       PRES   REMARKS
RICHMOND       PTSUNNY   82  72  71 SW10      29.91S
CHESTERFIELD*  NOT AVBL
PETERSBURG*    PTSUNNY   86  76  71 W9        29.92F HX  95
HANOVER        MOSUNNY   84  70  62 VRB5      29.91F
TAPPAHANNOCK*  MOSUNNY   85  66  52 W6        29.91F
QUINTON*       NOT AVBL
CHARLOTTSVILLE PTSUNNY   78  67  68 E8        29.90S
GORDONSVILLE*  CLOUDY    73  72  94 W3        29.92R FOG
ORANGE*        RAIN      75  68  78 N13G25    29.93R
LOUISA*        LGT RAIN  81  72  74 W6        29.90S
BUMPASS*       MOCLDY    81  70  69 MISG      29.90S
FARMVILLE*     MOSUNNY   87  68  53 S12G17    29.90F
CREWE*         MOCLDY    83  70  64 SW5       29.92F
FORT PICKETT*  MOCLDY    83  71  66 SW9       29.93S
CHASE CITY*    MOCLDY    85  73  65 S3        29.94F
CLARKSVILLE*   MOCLDY    84  70  61 SW9       29.94S
SOUTH HILL*    PTSUNNY   83  71  66 SW10      29.99F
LAWRENCEVILLE* NOT AVBL
EMPORIA*         N/A     82  72  69 S5        29.94S
$$

VAZ088>098-042100-
SOUTHEAST VIRGINIA

CITY           SKY/WX    TMP DP  RH WIND       PRES   REMARKS
NORFOLK        PTSUNNY   86  68  54 W7        29.90F
VIRGINIA BEACH PTSUNNY   89  70  53 SW13      29.90F
NORFOLK NAVAL  PTSUNNY   85  71  63 W10       29.91F
WEST POINT*    CLOUDY    86  69  56 SW7       29.91F
SALUDA*        FAIR      83  71  67 SW7       29.90F
NEWPORT NEWS   LGT RAIN  81  73  76 W8        29.91S
LANGLEY AFB    PTSUNNY   84  75  73 VRB5      29.89F
FORT EUSTIS    DRIZZLE   82  79  89 W5        29.89F
WILLIAMSBURG*  CLOUDY    88  73  62 SW8       29.91F HX  96
HR EXEC AP*    FAIR      88  72  58 W8        29.92F
FRANKLIN*      PTSUNNY   86  72  62 SW8G16    29.92F
WAKEFIELD      PTSUNNY   85  71  63 W9        29.91F
$$

VAZ020-022-025-037-045-042100-
WEST CENTRAL AND SOUTHWEST VIRGINIA

CITY           SKY/WX    TMP DP  RH WIND       PRES   REMARKS
STAUNTON*      PTSUNNY   83  66  55 W8        29.96S
WAYNESBORO*    FAIR      79  66  63 W7        29.96F
HOT SPRINGS VA CLOUDY    70  70 100 W12       30.08S
LYNCHBURG      PTSUNNY   81  68  64 VRB7      29.95F
DANVILLE       TSTM      72  67  84 N30G38    29.98R
SOUTH BOSTON*  FAIR      84  69  60 MISG      29.94S
MARTINSVILLE   MOSUNNY   85  67  53 SW5       29.98F
ROANOKE        PTSUNNY   78  68  71 N6        29.99R
BLACKSBURG     PTSUNNY   80  67  65 NW8       30.05S
DUBLIN*        PTSUNNY   81  67  63 W7        30.03F
MARION*        PTSUNNY   76  67  73 W12       30.09S
HILLSVILLE*    PTSUNNY   77  64  63 W12       30.05F
RICHLANDS*     DRIZZLE   69  67  93 CALM      30.08S
WISE*          CLOUDY    73  63  68 N7        30.09S
ABINGDON*      PTSUNNY   78  68  72 W9        30.06S
$$

MDZ021>025-VAZ099-100-042100-
SOUTHERN MARYLAND AND THE DELMARVA PENINSULA

CITY           SKY/WX    TMP DP  RH WIND       PRES   REMARKS
PATUXENT RIVER PTSUNNY   78  69  73 E6        29.90S
BAY BRIDGE APT   N/A     77  68  73 E6        29.91S
LEONARDTOWN    CLOUDY    81  68  65 W3        29.91S
DOVER          CLOUDY    78  67  68 E3        29.90S
GEORGETOWN     PTSUNNY   79  64  60 NE5       29.92S
EASTON         PTSUNNY   81  72  74 E6        29.95S
CAMBRIDGE      PTSUNNY   81  68  65 NE6       29.90S
SALISBURY      RAIN      76  71  85 NE13      29.90S
OCEAN CITY     PTSUNNY   77  65  66 NE13      29.91S
WALLOPS ISLAND CLOUDY    75  73  93 SE9       29.92S
ACCOMACK*      CLOUDY    77  73  88 N3        29.91S
$$

NCZ012>017-030>032-042100-
NORTH CENTRAL AND EASTERN NORTH CAROLINA

CITY           SKY/WX    TMP DP  RH WIND       PRES   REMARKS
ROANOKE RAPIDS FAIR      84  72  65 SW12      29.94F
RALEIGH        PTSUNNY   85  72  65 W13       29.97F
ELIZABETH CITY LGT RAIN  78  71  79 SW9       29.94R
AHOSKIE*       PTSUNNY  N/A N/A N/A S5        29.94S
EDENTON*       LGT RAIN  76  69  78 SW8       29.96S
CURRITUCK*     PTSUNNY   85  69  57 SW5       29.94R
KILL DEVIL HLS LGT RAIN  84  70  63 SW16G28   29.96R
MANTEO         HVY RAIN  75  70  86 W22G39    30.00R
CAPE HATTERAS  SUNNY     82  73  74 SW20G28   29.98F
TARBORO*       LGT RAIN  77  73  87 SW5       29.96F
GOLDSBORO      MOSUNNY   88  69  52 SW13G22   29.95F
WASHINGTON     HVY RAIN  72  69  91 NW7G23    30.00R
GREENVILLE     PTSUNNY   77  73  88 CALM      30.00F
NEW BERN       SUNNY     90  67  46 W21       29.99F
WILMINGTON     MOSUNNY   92  68  45 W18G24    30.02F HX  96
$$

VAZ048-042100-
ELSEWHERE

CITY           SKY/WX    TMP DP  RH WIND       PRES   REMARKS
HARRISBURG PA  CLOUDY    70  63  78 CALM      29.94S
BALTIMORE      CLOUDY    75  68  78 E8        29.91S
ANNAPOLIS      MOSUNNY   76  68  76 E6        29.91S
ANDREWS AFB    PTSUNNY   79  74  82 SE3       29.90R
PHILADELPHIA   PTSUNNY   75  61  61 NE12      29.92F
HENDERSON NC   PTSUNNY   84  65  53 W7        29.95F
GREENSBORO     MOSUNNY   85  66  53 SW10      29.96F
ROCKY MOUNT    CLOUDY    80  74  81 W8        29.97F
$$

VAZ100-042100-
MARINE

STATION/POSITION TIME  TEMP    WIND        PRES    WAVE   SWELL
                       AIR SEA DIR/SP/G            HT/PER HT/PER
                 (UTC) (F)     (DEG/KT/KT) (MB)    (FT/S) (FT/S)
BRANDYWINE LGT   1900   76 74  120/  2/  3 1013.2R
CAPE MAY NJ      1900   75 76   80/  7/ 10 1012.6R
LEWES DE         1900   73 73   70/  7/  8 1013.0S
15NM E FENWICK I 1950   72 74              1012.7R   4/ 6
OCEAN-CITY-INLET 1900   75 74   70/ 10/ 13 1012.6R
WACHAPREAGUE VA  1900   81 82  280/  5/  9 1012.9R
THOMAS POINT MD  2000   75 77   40/  5/  6 1013.3F
GOOSES REEF MD   2000   77 79   50/  6/  8 1013.7F
COVE POINT MD    1900   76      30/  8/  9 1013.3S
SOLOMONS ISLAND  1900      80                N/A
BISHOPS HEAD MD  1900   79     250/  6/  7 1012.4R
PINEY POINT MD   1900          350/  6/  7   N/A
CAMBRIDGE MD     1900   79 79  330/  4/  5 1012.5S
LEWISETTA VA     1900   77 80   40/  3/  5 1012.5R
RAPPAHANNOCK LGT 1900          230/ 10/ 11 1013.2F
STINGRAY PT      2000   82 81  260/  8/ 12 1012.5F   1
YORK RVR RNG VA  1900   81     280/ 11/ 13 1012.3F
YORKTOWN VA      1918   82 79  260/  8/ 10 1012.6S
JAMESTOWN VA     2000   82 83  220/ 10/ 14   N/A
DOMINION TERM VA 1900   80     290/  5/  6 1012.9F
KIPTOPEKE VA     1900      82  230/  2/  5   N/A
CHES BAY BRIDGE  1900   77 78  270/  9/ 17 1012.8R
CAPE HENRY VA    1900   80     320/  8/ 10   N/A
CHESAPEAKE LGHT  1900   78     300/ 11/ 12 1013.9S
WILLOUBY STN VA  1900   80     270/ 10/ 10 1013.8F
CAPE HENRY BUOY  1928      77                N/A     3/ 6
1ST LANDING BUOY 2000      78              1012.6F   1/ 3
CAPE CHARLES BUO 1926      76                N/A     2/ 9   2/ 9
OFFSHORE WE BUOY 1911      79                N/A     4/ 8   3/ 8
64NM E OF VA BCH 1950   78 77  210/  6/  6 1013.5F   5/ 8   5/ 8
DUCK PIER NC     1900   85 69  250/ 12/ 17   N/A
44100 DUCK FRF   1924      76                N/A     3/ 8
44056 DUCK FRF   1911      77                N/A     2/14   2/14
OREGON INLET NC  1900   84 82  200/ 19/ 22 1013.8F
HATTERAS NC      1900   82 78  210/ 13/ 21 1015.1S
DIAMOND SHLS NC  1950   81 82  220/ 25/ 29 1015.2F   7/ 7   2/ 9
CAPE LOOKOUT NC  2000   83     220/ 16/ 21 1016.0F
$$


USA.gov is the U.S. government's official web portal to all federal, state and local government web resources and services.